Location: Enborne
(51.3833°N, 1.3667°W)
Time: 00:09:15
(UTC+00:00)

NOSS 2-2 (C) - Pass Details

Date: 22 January 2021
Orbit: 463 x 1745 km, 63.3° (Epoch: 03 March)

Event Time Altitude Azimuth Distance (km) Brightness Sun altitude
Rises 18:11:33 0° 307° (NW) 2,743 7.5 -14.3°
Reaches altitude 10° 18:13:58 10° 324° (NW) 1,977 6.4 -14.6°
Maximum altitude 18:17:28 22° 17° (NNE) 1,536 5.3 -15.2°
Enters shadow 18:19:15 19° 45° (NE) 1,795 5.4 -15.4°
